Location: Ferchesar
(52.6477°N, 12.4298°E)
Time: 10:18:38
(UTC+01:00)

S-56A Canister/Altair - Pass Details

Date: 08 December 2021
Orbit: 633 x 2499 km, 38.9° (Epoch: 19 January)

Event Time Altitude Azimuth Distance (km) Brightness Sun altitude
Rises 00:01:03 0° 239° (WSW) 5,406 - -60.1°
Reaches altitude 10° 00:05:31 10° 230° (SW) 4,097 - -60.1°
Maximum altitude 00:13:55 30° 176° (S) 2,257 - -60.0°
Drops below altitude 10° 00:19:59 10° 119° (ESE) 2,904 - -59.9°
Sets 00:22:36 0° 107° (ESE) 3,638 - -59.8°
